Bahías de Huatulco International Airport
MMBT : rendu visible

Aérodrome :











RETROUVEZ-NOUS SUR...

 
LOGIN :

S'inscrire | Disclaimer

   EN    FR    IT 

 









Légende :    VFR   VFR Marginal   IFR   IFR Intensif   IFR Très Intensif
Visi : 
Plafond : 
>= 8 km
>= 3000ft
5 à 8 km
1000 à 3000 ft
1500m à 5 km
500 à 1000 ft
800 à 1500m
200 à 500 ft
< 800m
< 200 ft
Symboles :   Orages  Brouillard  Fortes neiges  Fortes précipitations  Vent > 20 kt






- Altitude de l'aérodrome : 464 ft
- Code IATA : HUX


MMBT - Bahías de Huatulco International

DERNIER METAR :
  • 291356Z 00000KT 7SM SCT200 26/21 A2990 RMK 8/001

METARs EXPIRÉS :
  • 291247Z 00000KT 7SM SCT200 24/20 A2988 RMK 8/001 HZY RTS

TAF TAF MMBT
Valide du 29 à 06h jusqu'au 30 à 06h UTC


290425Z 2906/3006 00000KT P6SM SCT030 SCT100
FM291800 18010KT P6SM SCT020
PROB40 2921/3001 5SM TSRA BKN020CB
FM300200 00000KT P6SM SCT020 BKN080
FIR MMFR / Amérique du Nord



MET'MAP, la Météo Aéronautique d'un coup d'oeil ! - Copyright ORBIFLY Décembre 2007 - Disclaimer

ORBIFLY MET'MAP TEAM :

Programmation & Développement : Alexandra Zaïnal
Sur une idée originale de : Baudouin d'Aumeries
Assistance à la programmation : Marc-Olivier Méhu
Soutien technique & logistique : Manuel Goepfert

Contact : metmap@orbifly.com




SOURCES & CREDITS :

   NOAA       Earth
Advisory